User: anonymous   Login
Location: Koslow
(50.3020°N, 18.5663°E)
Time: 12:46:13
(UTC+00:00)
Language:

Hubble Space Telescope - Orbit

View from above orbital plane
View from above orbital plane
View from above satellite
View from above satellite

Ground track
Ground track

The orbit data is extracted from the following two-line orbital elements,

1 20580U 90037B   21266.93700494  .00000796  00000-0  37126-4 0  9992
2 20580  28.4695 133.3956 0002770  46.6885 333.3940 15.09744800526156
Epoch (UTC): 23 September 2021 22:29:17
Eccentricity: 0.0002770
inclination: 28.4695°
perigee height: 535 km
apogee height: 539 km
right ascension of ascending node: 133.3956°
argument of perigee: 46.6885°
revolutions per day: 15.09744800
mean anomaly at epoch: 333.3940°
orbit number at epoch: 52615

The dashed part of the orbit path shows where the satellite is in the earth's shadow,  

DLR